• In Uzbekistan
  • List of Countries
  • For 7 days
  • Water Temperature
  • Satellite Maps
  • Weather Map
  • Weather Widgets
  • user-avatar
    Login

    Hourly Weather Masvingo

    Today, 23 July, Monday

    Time Temperature Precipitation Wind Pressure Humidity
    00:00 +13°C° 0 mm 2 mps 678 mmHg 74%
    01:00 +12°C° 0 mm 2 mps 678 mmHg 75%
    02:00 +12°C° 0 mm 2 mps 678 mmHg 79%
    03:00 +12°C° 0 mm 2 mps 678 mmHg 82%
    04:00 +10°C° 0 mm 2 mps 678 mmHg 85%
    05:00 +11°C° 0 mm 1 mps 678 mmHg 88%
    06:00 +12°C° 0 mm 2 mps 679 mmHg 86%
    07:00 +13°C° 0 mm 2 mps 679 mmHg 84%
    08:00 +12°C° 0 mm 3 mps 680 mmHg 82%
    09:00 +14°C° 0 mm 4 mps 680 mmHg 73%
    10:00 +15°C° 0 mm 4 mps 681 mmHg 63%
    11:00 +17°C° 0 mm 5 mps 681 mmHg 53%
    12:00 +19°C° 0 mm 5 mps 681 mmHg 50%
    13:00 +19°C° 0 mm 5 mps 680 mmHg 47%
    14:00 +20°C° 0 mm 5 mps 680 mmHg 44%
    15:00 +19°C° 0 mm 5 mps 679 mmHg 49%
    16:00 +19°C° 0 mm 4 mps 679 mmHg 53%
    17:00 +18°C° 0 mm 4 mps 679 mmHg 58%
    18:00 +17°C° 0 mm 3 mps 679 mmHg 64%
    19:00 +16°C° 0 mm 3 mps 679 mmHg 70%
    20:00 +15°C° 0 mm 2 mps 679 mmHg 76%
    21:00 +14°C° 0 mm 2 mps 679 mmHg 81%
    22:00 +14°C° 0 mm 2 mps 679 mmHg 85%
    23:00 +14°C° 0 mm 2 mps 679 mmHg 89%

    Tomorrow, 24 July, Tuesday

    Time Temperature Precipitation Wind Pressure Humidity
    00:00 +13°C° 0 mm 2 mps 679 mmHg 90%
    01:00 +13°C° 0 mm 2 mps 679 mmHg 90%
    02:00 +13°C° 0 mm 2 mps 678 mmHg 91%
    03:00 +13°C° 0 mm 2 mps 678 mmHg 91%
    04:00 +13°C° 0 mm 2 mps 678 mmHg 91%
    05:00 +13°C° 0 mm 2 mps 678 mmHg 91%
    06:00 +14°C° 0.1 mm 2 mps 678 mmHg 89%
    07:00 +13°C° 0.1 mm 3 mps 679 mmHg 87%
    08:00 +13°C° 0.1 mm 3 mps 679 mmHg 85%
    09:00 +14°C° 0 mm 3 mps 679 mmHg 77%
    10:00 +16°C° 0 mm 3 mps 680 mmHg 69%
    11:00 +18°C° 0 mm 3 mps 680 mmHg 61%
    12:00 +19°C° 0 mm 3 mps 680 mmHg 55%
    13:00 +20°C° 0 mm 3 mps 679 mmHg 48%
    14:00 +21°C° 0 mm 3 mps 679 mmHg 41%
    15:00 +20°C° 0 mm 3 mps 678 mmHg 42%
    16:00 +20°C° 0 mm 3 mps 678 mmHg 43%
    17:00 +19°C° 0 mm 3 mps 678 mmHg 43%
    18:00 +18°C° 0 mm 2 mps 678 mmHg 47%
    19:00 +16°C° 0 mm 2 mps 677 mmHg 51%
    20:00 +15°C° 0 mm 1 mps 677 mmHg 54%
    21:00 +14°C° 0 mm 1 mps 677 mmHg 55%
    22:00 +13°C° 0 mm 1 mps 677 mmHg 55%
    23:00 +13°C° 0 mm 1 mps 677 mmHg 56%

    Day after tomorrow, 25 July, Wednesday

    Time Temperature Precipitation Wind Pressure Humidity
    00:00 +12°C° 0 mm 1 mps 677 mmHg 58%
    01:00 +12°C° 0 mm 1 mps 677 mmHg 60%
    02:00 +12°C° 0 mm 1 mps 676 mmHg 62%
    03:00 +11°C° 0 mm 1 mps 676 mmHg 65%
    04:00 +11°C° 0 mm 1 mps 676 mmHg 68%
    05:00 +10°C° 0 mm 1 mps 675 mmHg 71%
    06:00 +11°C° 0 mm 1 mps 676 mmHg 68%
    07:00 +11°C° 0 mm 0 mps 677 mmHg 66%
    08:00 +12°C° 0 mm 0 mps 677 mmHg 64%
    09:00 +15°C° 0 mm 1 mps 678 mmHg 56%
    10:00 +18°C° 0 mm 2 mps 678 mmHg 48%
    11:00 +20°C° 0 mm 3 mps 679 mmHg 40%
    12:00 +21°C° 0 mm 3 mps 678 mmHg 36%
    13:00 +22°C° 0 mm 3 mps 678 mmHg 33%
    14:00 +24°C° 0 mm 3 mps 677 mmHg 29%
    15:00 +22°C° 0 mm 3 mps 677 mmHg 32%
    16:00 +21°C° 0 mm 3 mps 676 mmHg 34%
    17:00 +20°C° 0 mm 2 mps 676 mmHg 37%
    18:00 +19°C° 0 mm 2 mps 676 mmHg 42%
    19:00 +17°C° 0 mm 2 mps 676 mmHg 47%
    20:00 +15°C° 0 mm 1 mps 676 mmHg 52%
    21:00 +15°C° 0 mm 1 mps 676 mmHg 54%
    22:00 +14°C° 0 mm 1 mps 676 mmHg 57%
    23:00 +14°C° 0 mm 1 mps 676 mmHg 59%

    26 July, Thursday

    Time Temperature Precipitation Wind Pressure Humidity
    00:00 +13°C° 0 mm 1 mps 676 mmHg 61%
    01:00 +13°C° 0 mm 1 mps 675 mmHg 63%
    02:00 +11°C° 0 mm 0 mps 675 mmHg 65%
    03:00 +11°C° 0 mm 0 mps 675 mmHg 67%
    04:00 +10°C° 0 mm 0 mps 674 mmHg 68%
    05:00 +10°C° 0 mm 0 mps 674 mmHg 69%
    06:00 +11°C° 0 mm 0 mps 675 mmHg 66%
    07:00 +12°C° 0 mm 0 mps 676 mmHg 62%
    08:00 +13°C° 0 mm 0 mps 676 mmHg 58%
    09:00 +16°C° 0 mm 0 mps 677 mmHg 49%
    10:00 +20°C° 0 mm 1 mps 677 mmHg 41%
    11:00 +23°C° 0 mm 1 mps 678 mmHg 32%
    12:00 +23°C° 0 mm 1 mps 677 mmHg 29%
    13:00 +24°C° 0 mm 1 mps 676 mmHg 26%
    14:00 +25°C° 0 mm 2 mps 676 mmHg 23%
    15:00 +24°C° 0 mm 2 mps 675 mmHg 25%
    16:00 +23°C° 0 mm 2 mps 675 mmHg 26%
    17:00 +23°C° 0 mm 2 mps 675 mmHg 28%
    18:00 +20°C° 0 mm 2 mps 675 mmHg 32%
    19:00 +18°C° 0 mm 2 mps 675 mmHg 36%
    20:00 +18°C° 0 mm 1 mps 675 mmHg 39%
    21:00 +16°C° 0 mm 1 mps 675 mmHg 41%
    22:00 +15°C° 0 mm 1 mps 675 mmHg 43%
    23:00 +15°C° 0 mm 1 mps 675 mmHg 44%

    27 July, Friday

    Time Temperature Precipitation Wind Pressure Humidity
    00:00 +14°C° 0 mm 1 mps 675 mmHg 46%
    01:00 +14°C° 0 mm 1 mps 674 mmHg 48%
    02:00 +13°C° 0 mm 1 mps 674 mmHg 50%
    03:00 +13°C° 0 mm 1 mps 674 mmHg 51%
    04:00 +13°C° 0 mm 1 mps 674 mmHg 53%
    05:00 +12°C° 0 mm 1 mps 674 mmHg 54%
    06:00 +13°C° 0 mm 1 mps 675 mmHg 52%
    07:00 +14°C° 0 mm 1 mps 675 mmHg 49%
    08:00 +15°C° 0 mm 1 mps 676 mmHg 47%
    09:00 +19°C° 0 mm 1 mps 676 mmHg 40%
    10:00 +22°C° 0 mm 1 mps 677 mmHg 34%
    11:00 +24°C° 0 mm 1 mps 677 mmHg 27%
    12:00 +25°C° 0 mm 1 mps 676 mmHg 25%
    13:00 +26°C° 0 mm 1 mps 676 mmHg 22%
    14:00 +27°C° 0 mm 1 mps 675 mmHg 20%
    15:00 +26°C° 0 mm 1 mps 675 mmHg 22%
    16:00 +25°C° 0 mm 2 mps 674 mmHg 23%
    17:00 +24°C° 0 mm 2 mps 674 mmHg 25%
    18:00 +21°C° 0 mm 2 mps 674 mmHg 28%
    19:00 +21°C° 0 mm 1 mps 674 mmHg 31%
    20:00 +19°C° 0 mm 1 mps 674 mmHg 34%
    21:00 +18°C° 0 mm 1 mps 674 mmHg 36%
    22:00 +18°C° 0 mm 1 mps 674 mmHg 37%
    23:00 +16°C° 0 mm 1 mps 674 mmHg 38%

    28 July, Saturday

    Time Temperature Precipitation Wind Pressure Humidity
    00:00 +16°C° 0 mm 1 mps 674 mmHg 40%
    01:00 +15°C° 0 mm 1 mps 673 mmHg 42%
    02:00 +15°C° 0 mm 1 mps 673 mmHg 43%
    03:00 +14°C° 0 mm 1 mps 673 mmHg 46%
    04:00 +14°C° 0 mm 1 mps 673 mmHg 49%
    05:00 +14°C° 0 mm 1 mps 673 mmHg 51%
    06:00 +15°C° 0 mm 1 mps 674 mmHg 51%
    07:00 +16°C° 0 mm 1 mps 674 mmHg 50%
    08:00 +18°C° 0 mm 1 mps 675 mmHg 49%
    09:00 +20°C° 0 mm 1 mps 675 mmHg 44%
    10:00 +23°C° 0 mm 1 mps 676 mmHg 38%
    11:00 +25°C° 0 mm 1 mps 676 mmHg 32%
    12:00 +26°C° 0 mm 1 mps 675 mmHg 30%
    13:00 +26°C° 0 mm 1 mps 675 mmHg 27%
    14:00 +27°C° 0 mm 2 mps 674 mmHg 24%
    15:00 +26°C° 0 mm 2 mps 674 mmHg 25%
    16:00 +25°C° 0 mm 2 mps 674 mmHg 27%
    17:00 +25°C° 0 mm 2 mps 673 mmHg 28%
    18:00 +23°C° 0 mm 2 mps 673 mmHg 32%
    19:00 +20°C° 0 mm 2 mps 674 mmHg 36%
    20:00 +19°C° 0 mm 2 mps 674 mmHg 40%
    21:00 +18°C° 0 mm 2 mps 674 mmHg 42%
    22:00 +19°C° 0 mm 1 mps 674 mmHg 44%
    23:00 +18°C° 0 mm 1 mps 674 mmHg 46%
    Show more